Date String (YYYY-MM-DD hh:mm:ss) UTC,Instrument flags,Ambient pressure (hPa),Sample flow (lpm),Bypass flow (lpm),Sample temperature (°C),Ambient temperature (°C),ASC tube jacket temperature (°C),LED temperature (°C),Box temperature (°C),Sample RH (%),Span deviation,Mass concentration (μg/m³),Mass concentration (μg/m³),Mass concentration (μg/m³)
DateTimeUTC,F1_M11,P_M11,Q1_M11,Q2_M11,T1_M11,T2_M11,T3_M11,T4_M11,T5_M11,U1_M11,ZSPAN_M11,X2_M11,X0_M11,X1_M11
2022-07-02 14:00:00,,0829.2,5.00,0.00,30.1,28.6,00.0,39.0,31.9,29.4,0000.0,0004.64,0009.56,0003.58
2022-07-02 14:01:00,,0829.3,5.00,0.00,30.1,28.7,00.0,39.0,32.0,29.5,0000.0,0004.65,0010.07,0003.60
2022-07-02 14:02:00,,0829.2,4.99,0.00,30.1,28.7,00.0,39.0,32.0,29.2,0000.0,0004.61,0009.94,0003.60
2022-07-02 14:03:00,,0829.2,5.00,0.00,30.1,28.8,00.0,39.0,32.0,29.0,0000.0,0004.57,0009.79,0003.59
2022-07-02 14:04:00,,0829.2,4.99,0.00,30.1,28.9,00.0,39.0,32.0,29.0,0000.0,0004.58,0010.42,0003.60
2022-07-02 14:05:00,,0829.3,5.00,0.00,30.1,28.9,00.0,39.0,32.0,28.9,0000.0,0004.59,0010.64,0003.62
2022-07-02 14:06:00,,0829.3,5.00,0.00,30.2,29.0,00.0,39.0,32.0,28.7,0000.0,0004.59,0011.32,0003.64
2022-07-02 14:07:00,,0829.3,5.00,0.00,30.2,29.0,00.0,39.0,32.1,29.1,0000.0,0004.63,0011.80,0003.66
2022-07-02 14:08:00,,0829.2,5.00,0.00,30.2,29.1,00.0,39.0,32.1,29.4,0000.0,0004.61,0011.81,0003.67
2022-07-02 14:09:00,,0829.2,5.00,0.00,30.2,29.1,00.0,39.0,32.1,28.9,0000.0,0004.62,0011.61,0003.69
2022-07-02 14:10:00,,0829.2,5.00,0.00,30.2,29.2,00.0,39.0,32.1,29.0,0000.0,0004.65,0011.81,0003.72
2022-07-02 14:11:00,,0829.3,5.01,0.00,30.2,29.2,00.0,39.0,32.1,29.2,0000.0,0004.64,0012.81,0003.72
2022-07-02 14:12:00,,0829.3,5.01,0.00,30.3,28.9,00.0,39.0,32.1,29.0,0000.0,0004.63,0012.61,0003.72
2022-07-02 14:13:00,,0829.3,5.02,0.00,30.2,28.1,00.0,38.9,32.0,29.0,0000.0,0004.67,0012.98,0003.73
2022-07-02 14:14:00,,0829.3,4.99,0.00,30.2,27.7,00.0,38.9,31.9,29.2,0000.0,0004.75,0013.41,0003.76
2022-07-02 14:15:00,,0829.2,4.99,0.00,30.1,27.6,00.0,38.9,31.7,29.7,0000.0,0004.77,0013.40,0003.77
2022-07-02 14:16:00,,0829.3,5.00,0.00,30.0,27.7,00.0,38.9,31.7,29.4,0000.0,0004.78,0013.20,0003.76
2022-07-02 14:17:00,,0829.3,5.00,0.00,30.0,27.8,00.0,38.8,31.7,29.6,0000.0,0004.80,0012.96,0003.76
2022-07-02 14:18:00,,0829.2,5.01,0.00,30.0,28.0,00.0,38.8,31.7,29.6,0000.0,0004.81,0012.44,0003.77
2022-07-02 14:19:00,,0829.3,5.00,0.00,29.9,28.1,00.0,38.8,31.7,29.5,0000.0,0004.79,0012.43,0003.77
2022-07-02 14:20:00,,0829.2,5.00,0.00,29.9,28.2,00.0,38.8,31.7,30.2,0000.0,0004.79,0012.42,0003.77
2022-07-02 14:21:00,,0829.2,5.00,0.00,29.9,28.4,00.0,38.8,31.7,29.8,0000.0,0004.74,0012.39,0003.76
2022-07-02 14:22:00,,0829.2,5.00,0.00,29.9,28.5,00.0,38.8,31.8,30.1,0000.0,0004.72,0011.40,0003.76
2022-07-02 14:23:00,,0829.2,5.00,0.00,30.0,28.6,00.0,38.8,31.8,30.2,0000.0,0004.76,0011.05,0003.78
2022-07-02 14:24:00,,0829.2,4.99,0.00,30.0,28.6,00.0,38.8,31.8,30.3,0000.0,0004.79,0010.89,0003.81
2022-07-02 14:25:00,,0829.2,5.00,0.00,30.0,28.7,00.0,38.8,31.9,30.1,0000.0,0004.75,0011.14,0003.83
2022-07-02 14:26:00,,0829.2,5.00,0.00,30.0,28.8,00.0,38.8,31.9,30.1,0000.0,0004.73,0010.77,0003.83
2022-07-02 14:27:00,,0829.2,5.01,0.00,30.0,28.8,00.0,38.8,31.9,30.0,0000.0,0004.73,0010.95,0003.85
2022-07-02 14:28:00,,0829.2,5.01,0.00,30.0,28.9,00.0,38.8,31.9,30.0,0000.0,0004.73,0010.85,0003.85
2022-07-02 14:29:00,,0829.2,5.01,0.00,30.0,28.9,00.0,38.8,32.0,30.0,0000.0,0004.70,0010.49,0003.86
2022-07-02 14:30:00,,0829.4,5.00,0.00,30.1,29.0,00.0,38.8,32.0,30.1,0000.0,0004.73,0010.49,0003.86
2022-07-02 14:31:00,,0829.4,5.00,0.00,30.1,29.0,00.0,38.8,32.0,29.9,0000.0,0004.74,0010.49,0003.87
2022-07-02 14:32:00,,0829.3,5.01,0.00,30.1,29.1,00.0,38.9,32.0,29.5,0000.0,0004.77,0010.25,0003.87
2022-07-02 14:33:00,,0829.4,4.99,0.00,30.1,29.1,00.0,38.9,32.0,29.3,0000.0,0004.77,0010.21,0003.86
2022-07-02 14:34:00,,0829.3,5.00,0.00,30.1,28.7,00.0,38.8,32.0,28.8,0000.0,0004.69,0010.10,0003.83
2022-07-02 14:35:00,,0829.4,4.99,0.00,30.1,28.0,00.0,38.8,31.9,29.0,0000.0,0004.64,0010.04,0003.79
2022-07-02 14:36:00,,0829.3,5.00,0.00,30.0,27.6,00.0,38.8,31.8,29.2,0000.0,0004.65,0009.46,0003.76
2022-07-02 14:37:00,,0829.3,5.01,0.00,30.0,27.6,00.0,38.8,31.7,29.2,0000.0,0004.66,0009.24,0003.73
2022-07-02 14:38:00,,0829.2,4.99,0.00,29.9,27.6,00.0,38.7,31.6,29.3,0000.0,0004.63,0009.17,0003.71
2022-07-02 14:39:00,,0829.2,4.99,0.00,29.9,27.8,00.0,38.7,31.6,29.6,0000.0,0004.59,0009.49,0003.69
2022-07-02 14:40:00,,0829.2,4.99,0.00,29.8,27.9,00.0,38.7,31.6,29.4,0000.0,0004.56,0009.42,0003.66
2022-07-02 14:41:00,,0829.2,5.00,0.00,29.8,28.0,00.0,38.7,31.6,29.3,0000.0,0004.50,0009.78,0003.64
2022-07-02 14:42:00,,0829.3,5.00,0.00,29.8,28.2,00.0,38.7,31.6,29.3,0000.0,0004.48,0009.80,0003.61
2022-07-02 14:43:00,,0829.4,5.00,0.00,29.8,28.3,00.0,38.7,31.7,29.4,0000.0,0004.44,0009.68,0003.59
2022-07-02 14:44:00,,0829.2,5.01,0.00,29.8,28.4,00.0,38.7,31.7,28.8,0000.0,0004.38,0009.86,0003.56
2022-07-02 14:45:00,,0829.2,5.00,0.00,29.8,28.5,00.0,38.7,31.7,28.6,0000.0,0004.36,0010.19,0003.54
2022-07-02 14:46:00,,0829.4,5.01,0.00,29.9,28.6,00.0,38.7,31.7,28.9,0000.0,0004.37,0010.16,0003.54
2022-07-02 14:47:00,,0829.4,5.00,0.00,29.9,28.6,00.0,38.7,31.7,28.9,0000.0,0004.35,0010.22,0003.53
2022-07-02 14:48:00,,0829.3,5.00,0.00,29.9,28.7,00.0,38.7,31.7,28.8,0000.0,0004.32,0010.42,0003.53
2022-07-02 14:49:00,,0829.4,4.99,0.00,29.9,28.8,00.0,38.7,31.8,28.9,0000.0,0004.35,0010.50,0003.53
2022-07-02 14:50:00,,0829.5,4.99,0.00,29.9,28.8,00.0,38.7,31.9,29.0,0000.0,0004.41,0010.26,0003.53
2022-07-02 14:51:00,,0829.4,5.00,0.00,30.0,28.9,00.0,38.7,31.9,28.7,0000.0,0004.49,0010.54,0003.53
2022-07-02 14:52:00,,0829.5,5.00,0.00,30.0,28.9,00.0,38.7,31.9,28.9,0000.0,0004.54,0011.07,0003.53
2022-07-02 14:53:00,,0829.5,4.99,0.00,30.0,28.8,00.0,38.7,31.9,28.9,0000.0,0004.53,0011.11,0003.54
2022-07-02 14:54:00,,0829.5,5.00,0.00,30.0,28.0,00.0,38.7,31.8,29.0,0000.0,0004.55,0011.18,0003.55
2022-07-02 14:55:00,,0829.4,5.00,0.00,29.9,27.6,00.0,38.6,31.7,28.8,0000.0,0004.56,0011.38,0003.56
2022-07-02 14:56:00,,0829.4,4.99,0.00,29.9,27.5,00.0,38.6,31.6,28.8,0000.0,0004.58,0010.87,0003.57
2022-07-02 14:57:00,,0829.4,5.00,0.00,29.8,27.6,00.0,38.6,31.5,29.2,0000.0,0004.58,0010.82,0003.58
2022-07-02 14:58:00,,0829.4,4.99,0.00,29.8,27.7,00.0,38.6,31.5,29.4,0000.0,0004.58,0010.77,0003.59
2022-07-02 14:59:00,,0829.4,5.01,0.00,29.8,27.9,00.0,38.6,31.5,29.1,0000.0,0004.64,0010.63,0003.61
